EW5562 Weather Reports


time (UTC)temp
C
wind
direction
speed
KPH
gust
KPH
rain 1hr
cm
rain 24hr
cm
rain mn
cm
humidity
%
barometer
mb
20260506201610 16 76 1.6 9.7 0.00 0.00 0.00 59 1012.6
20260506194609 17 66 4.8 6.4 0.00 0.00 0.00 54 1012.4
20260506191609 18 130 6.4 8.0 0.00 0.00 0.00 54 1012.0
20260506184621 18 30 6.4 8.0 0.00 0.00 0.00 53 1011.4
20260506181612 22 223 11.3 17.7 0.00 0.00 0.00 38 1010.6
20260506181607 20 14 4.8 16.1 0.00 0.00 0.00 45 1011.0
20260506171606 22 216 3.2 27.4 0.00 0.00 0.00 41 1010.5
20260506164606 23 213 24.1 35.4 0.00 0.00 0.00 38 1010.3
20260506161608 24 182 22.5 33.8 0.00 0.00 0.00 37 1010.2
20260506154606 25 216 20.9 29.0 0.00 0.00 0.00 36 1010.1
20260506151605 26 221 22.5 32.2 0.00 0.00 0.00 31 1010.2
20260506144605 27 202 27.4 35.4 0.00 0.00 0.00 28 1010.2
20260506141604 28 216 12.9 20.9 0.00 0.00 0.00 23 1010.2
20260506134603 27 117 3.2 11.3 0.00 0.00 0.00 24 1010.3
20260506131603 27 111 4.8 17.7 0.00 0.00 0.00 25 1010.5
20260506121602 27 32 3.2 19.3 0.00 0.00 0.00 28 1010.9
20260506111601 27 92 9.7 17.7 0.00 0.00 0.00 33 1011.5
20260506104601 26 52 8.0 14.5 0.00 0.00 0.00 36 1011.7
20260506101601 25 32 9.7 16.1 0.00 0.00 0.00 37 1011.9
20260506100100 25 80 3.2 14.5 0.00 0.00 0.00 36 1012.2
20260506091605 22 133 3.2 6.4 0.00 0.00 0.00 47 1012.5
20260506091600 23 133 6.4 9.7 0.00 0.00 0.00 44 1012.5
20260506081558 22 147 1.6 6.4 0.00 0.00 0.00 50 1012.6
20260506071557 19 94 3.2 4.8 0.00 0.00 0.00 54 1012.6
20260506061555 16 0 0.0 3.2 0.00 0.00 0.00 67 1012.8
20260506044555 12 331 1.6 3.2 0.00 0.00 0.00 79 1012.2
20260506041555 11 272 0.0 3.2 0.00 0.00 0.00 82 1012.1
20260506034554 11 271 3.2 6.4 0.00 0.00 0.00 84 1012.0
20260506031554 11 272 0.0 6.4 0.00 0.00 0.00 82 1011.7
20260506024553 11 317 1.6 6.4 0.00 0.00 0.00 79 1011.7
20260506021554 11 282 1.6 6.4 0.00 0.00 0.00 79 1011.7
20260506014553 11 345 6.4 8.0 0.00 0.00 0.00 80 1011.8
20260506011552 11 340 3.2 4.8 0.00 0.00 0.00 79 1011.7
20260506004552 12 193 1.6 4.8 0.00 0.00 0.00 78 1011.6
20260506003052 12 158 0.0 4.8 0.00 0.00 0.00 76 1011.7
20260505234550 12 179 0.0 4.8 0.00 0.00 0.00 74 1011.8
20260505233051 12 278 0.0 8.0 0.00 0.00 0.00 72 1011.8
20260505224550 13 333 4.8 6.4 0.00 0.00 0.00 71 1011.9
20260505221549 13 230 3.2 8.0 0.00 0.00 0.00 68 1011.9
20260505214549 13 231 6.4 8.0 0.00 0.00 0.00 70 1011.7
20260505211547 15 1 4.8 9.7 0.00 0.00 0.00 62 1011.7
20260505204546 15 0 6.4 11.3 0.00 0.00 0.00 63 1011.8